This is the latest recevied weather packets stored in our database for station/object KU9TRY. If no packets are shown the sender has not sent any weather packets the latest 10 day(s).
| Time | Temp. | Humidity | Pressure | Rain* | Wind** | Luminosity | Snow |
|---|---|---|---|---|---|---|---|
| 1787696431 | 26.67° C | 50% | 1016.8 hPa | 0 mm | - | 32 W/m² | - |
| 1787696126 | 26.67° C | 52% | 1016.9 hPa | 0 mm | - | 32 W/m² | - |
| 1787695825 | 26.67° C | 51% | 1017.1 hPa | 0 mm | - | 33 W/m² | - |
| 1787695521 | 26.67° C | 51% | 1017 hPa | 0 mm | - | 33 W/m² | - |
| 1787695217 | 26.67° C | 50% | 1017.1 hPa | 0 mm | - | 34 W/m² | - |
| 1787694915 | 26.67° C | 50% | 1017 hPa | 0 mm | - | 34 W/m² | - |
| 1787694611 | 27.22° C | 49% | 1017 hPa | 0 mm | - | 35 W/m² | - |
| 1787694310 | 27.22° C | 53% | 1017 hPa | 0 mm | - | 36 W/m² | - |
| 1787694006 | 27.22° C | 53% | 1016.8 hPa | 0 mm | - | 36 W/m² | - |
| 1787693701 | 27.78° C | 53% | 1016.9 hPa | 0 mm | - | 36 W/m² | - |
| 1787693397 | 28.33° C | 49% | 1017 hPa | 0 mm | - | 37 W/m² | - |
| 1787693093 | 27.78° C | 47% | 1017 hPa | 0 mm | - | 38 W/m² | - |
| 1787692789 | 27.78° C | 43% | 1017 hPa | 0 mm | - | 38 W/m² | - |
| 1787690976 | 29.44° C | 46% | 1017.1 hPa | 0 mm | - | 42 W/m² | - |
| 1787690676 | 29.44° C | 46% | 1017.2 hPa | 0 mm | - | 42 W/m² | - |
| 1787689763 | 30° C | 40% | 1017.1 hPa | 0 mm | - | 45 W/m² | - |
| 1787689459 | 30° C | 40% | 1017.5 hPa | 0 mm | - | 45 W/m² | - |
| 1787689158 | 30° C | 39% | 1017.4 hPa | 0 mm | - | 45 W/m² | - |
| 1787688854 | 30° C | 41% | 1017.5 hPa | 0 mm | - | 47 W/m² | - |
| 1787688550 | 30° C | 41% | 1017.6 hPa | 0 mm | - | 47 W/m² | - |
| 1787688250 | 30° C | 41% | 1017.2 hPa | 0 mm | - | 47 W/m² | - |
| 1787687945 | 30° C | 43% | 1017.6 hPa | 0 mm | - | 48 W/m² | - |
| 1787687641 | 30.56° C | 40% | 1017.7 hPa | 0 mm | - | 51 W/m² | - |
| 1787687336 | 30.56° C | 43% | 1017.5 hPa | 0 mm | - | 52 W/m² | - |
| 1787687031 | 30° C | 43% | 1017.6 hPa | 0 mm | - | 53 W/m² | - |
* Rain latest hour (hover to see other rain measurements)
** Current wind speed in m/s (hover to see current wind gust speed)